Back to catalog

FENGYUN 1C DEB

AlivePO
NORAD 31744·DEBRIS·🇨🇳 China

Launched May 10, 1999 from Taiyuan Satellite Launch Center

Loading…

Next Passes (next 24 hours)

TLE

FreshSource: Space-Track

Epoch: Sep 13, 2026, 14:14 UTC

1 31744U 99025CET 26256.59367439  .00002728  00000-0  81609-3 0  9997
2 31744  99.3233  26.7604 0302794 347.1180  12.2380 14.20522035985129

Track FENGYUN 1C DEB in real time with AllMySat

Download on the App Store